This is the latest recevied weather packets stored in our database for station/object EI4HQ. If no packets are shown the sender has not sent any weather packets the latest 1 day(s).
| Time | Temp. | Humidity | Pressure | Rain* | Wind** | Luminosity | Snow |
|---|---|---|---|---|---|---|---|
| 1777994823 | 13.89° C | 59% | 1016.6 hPa | 0 mm | 1.34 m/s, 336° | - | - |
| 1777994283 | 13.33° C | 59% | 1016.7 hPa | 0 mm | 1.79 m/s, 332° | - | - |
| 1777993743 | 13.33° C | 58% | 1016.7 hPa | 0 mm | 2.24 m/s, 344° | - | - |
| 1777993203 | 13.33° C | 59% | 1016.8 hPa | 0 mm | 2.68 m/s, 348° | - | - |
| 1777992843 | 13.33° C | 58% | 1016.7 hPa | 0 mm | 2.68 m/s, 352° | - | - |
| 1777992303 | 13.33° C | 61% | 1016.7 hPa | 0 mm | 1.79 m/s, 335° | - | - |
| 1777991763 | 13.33° C | 60% | 1016.7 hPa | 0 mm | 1.79 m/s, 342° | - | - |
| 1777991223 | 13.33° C | 61% | 1016.8 hPa | 0 mm | 1.79 m/s, 347° | - | - |
| 1777990683 | 12.78° C | 61% | 1016.9 hPa | 0 mm | 2.68 m/s, 342° | - | - |
| 1777990143 | 12.78° C | 61% | 1016.9 hPa | 0 mm | 2.68 m/s, 349° | - | - |
| 1777989603 | 12.78° C | 61% | 1016.9 hPa | 0 mm | 2.24 m/s, 349° | - | - |
| 1777989243 | 12.78° C | 63% | 1016.9 hPa | 0 mm | 2.24 m/s, 348° | - | - |
| 1777988703 | 12.78° C | 62% | 1016.9 hPa | 0 mm | 3.13 m/s, 346° | - | - |
| 1777988163 | 12.78° C | 62% | 1016.9 hPa | 0 mm | 3.58 m/s, 341° | - | - |
| 1777987623 | 12.78° C | 61% | 1017 hPa | 0 mm | 3.58 m/s, 341° | - | - |
| 1777987083 | 13.33° C | 61% | 1017 hPa | 0 mm | 1.79 m/s, 340° | - | - |
| 1777986543 | 13.89° C | 60% | 1016.9 hPa | 0 mm | 1.34 m/s, 342° | - | - |
| 1777986003 | 13.89° C | 58% | 1016.9 hPa | 0 mm | 2.68 m/s, 347° | - | - |
| 1777985643 | 13.89° C | 60% | 1016.9 hPa | 0 mm | 2.24 m/s, 344° | - | - |
| 1777985103 | 13.33° C | 63% | 1017 hPa | 0 mm | 2.24 m/s, 345° | - | - |
| 1777984563 | 13.33° C | 61% | 1017 hPa | 0 mm | 3.13 m/s, 341° | - | - |
| 1777984023 | 13.89° C | 61% | 1017 hPa | 0 mm | 1.79 m/s, 356° | - | - |
| 1777983483 | 13.89° C | 61% | 1017 hPa | 0 mm | 1.34 m/s, 348° | - | - |
| 1777982943 | 13.89° C | 60% | 1017 hPa | 0 mm | 1.34 m/s, 351° | - | - |
| 1777982403 | 13.33° C | 61% | 1017.1 hPa | 0 mm | 1.79 m/s, 352° | - | - |
* Rain latest hour (hover to see other rain measurements)
** Current wind speed in m/s (hover to see current wind gust speed)